Rochelle, IL

10:23 AM CDT on April 27, 2017 (GMT -0500)
Rochelle

Weather History for KRPJ - May, 2014

Change the Weather History Date:

Wednesday, May 7, 2014

  Actual Average (KRFD) Record (KRFD)
Temperature  
Mean Temperature 68 °F -  
Max Temperature 85 °F 67 °F 89 °F (1934)
Min Temperature 53 °F 43 °F 28 °F (1976)
Cooling Degree Days 3    
Growing Degree Days 18 (Base 50)    
Moisture  
Dew Point 49 °F    
Average Humidity 57    
Maximum Humidity 78    
Minimum Humidity 40    
Precipitation  
Precipitation 0.03 in - - ()
Sea Level Pressure  
Sea Level Pressure 29.78 in    
Wind  
Wind Speed 14 mph (ESE)    
Max Wind Speed 22 mph    
Max Gust Speed 26 mph    
Visibility 10 miles    
Events Thunderstorm    
Averages and records for this station are not official NWS values.
T = Trace of Precipitation, MM = Missing Value Source: NWS Daily Summary

Daily Weather History Graph

Daily Weather History Graph

Search for Another Location

Airport or City:

Trip Planner

Search our weather history database for the weather conditions in past years. The results will help you decide how hot, cold, wet, or windy it might be!

Date:

Astronomy

May. 07, 2014 Rise Set
Actual Time 5:44 AM CDT 8:01 PM CDT
Civil Twilight 5:13 AM CDT 8:32 PM CDT
Nautical Twilight 4:35 AM CDT 9:11 PM CDT
Astronomical Twilight 3:53 AM CDT 9:53 PM CDT
Moon 12:59 PM CDT (5/7) 1:50 AM CDT (5/7)
Length of Visible Light 15h 18m
Length of Day
14h 16m
First Quarter, 55% of the Moon is Illuminated
May 7
First Quarter
May 14
Full
May 21
Last Quarter
May 28
New
Jun 5
First Quarter

Hourly Weather History & Observations

Time (CDT) Temp. Heat Index Dew Point Humidity Pressure Visibility Wind Dir Wind Speed Gust Speed Precip Events Conditions
12:15 AM 56.7 °F - 39.2 °F 52% 29.82 in 10.0 mi East 17.3 mph 23.0 mph N/A   Mostly Cloudy
12:35 AM 56.3 °F - 39.4 °F 53% 29.82 in 10.0 mi East 18.4 mph 25.3 mph N/A   Scattered Clouds
12:55 AM 55.8 °F - 39.4 °F 54% 29.82 in 10.0 mi East 16.1 mph - N/A   Clear
1:15 AM 55.6 °F - 39.4 °F 55% 29.82 in 10.0 mi East 13.8 mph 19.6 mph N/A   Clear
1:35 AM 55.4 °F - 39.2 °F 54% 29.81 in 10.0 mi East 15.0 mph 18.4 mph N/A   Clear
1:55 AM 55.6 °F - 39.2 °F 54% 29.81 in 10.0 mi ESE 12.7 mph - N/A   Clear
2:15 AM 55.4 °F - 39.2 °F 54% 29.79 in 10.0 mi ESE 15.0 mph - N/A   Clear
2:35 AM 56.3 °F - 38.7 °F 52% 29.79 in 10.0 mi ESE 15.0 mph 24.2 mph N/A   Scattered Clouds
2:55 AM 56.7 °F - 38.3 °F 50% 29.78 in 10.0 mi ESE 17.3 mph 24.2 mph N/A   Scattered Clouds
3:15 AM 56.3 °F - 37.9 °F 50% 29.78 in 10.0 mi SE 16.1 mph 23.0 mph N/A   Clear
3:35 AM 55.9 °F - 37.9 °F 51% 29.77 in 10.0 mi SE 18.4 mph 25.3 mph N/A   Scattered Clouds
3:55 AM 55.6 °F - 37.9 °F 52% 29.76 in 10.0 mi SE 21.9 mph 26.5 mph N/A   Mostly Cloudy
4:15 AM 55.6 °F - 38.3 °F 52% 29.76 in 10.0 mi ESE 18.4 mph 23.0 mph N/A   Scattered Clouds
4:35 AM 55.0 °F - 38.3 °F 53% 29.76 in 10.0 mi ESE 17.3 mph - N/A   Scattered Clouds
4:55 AM 54.5 °F - 38.3 °F 54% 29.76 in 10.0 mi SE 17.3 mph 21.9 mph N/A   Clear
5:15 AM 54.3 °F - 38.3 °F 55% 29.76 in 10.0 mi ESE 12.7 mph 21.9 mph N/A   Clear
5:35 AM 53.8 °F - 38.8 °F 57% 29.78 in 10.0 mi East 12.7 mph - N/A   Clear
5:55 AM 54.0 °F - 38.8 °F 57% 29.79 in 10.0 mi East 10.4 mph - N/A   Clear
6:15 AM 53.6 °F - 38.8 °F 57% 29.79 in 10.0 mi East 6.9 mph - N/A   Clear
6:35 AM 53.8 °F - 38.7 °F 57% 29.79 in 10.0 mi East 12.7 mph - N/A   Clear
6:55 AM 54.7 °F - 39.2 °F 56% 29.81 in 10.0 mi East 12.7 mph - N/A   Clear
7:15 AM 55.6 °F - 39.7 °F 55% 29.82 in 10.0 mi East 12.7 mph - N/A   Clear
7:35 AM 57.4 °F - 40.3 °F 53% 29.82 in 10.0 mi ESE 15.0 mph - N/A   Clear
7:55 AM 58.3 °F - 41.2 °F 53% 29.81 in 10.0 mi ESE 15.0 mph - N/A   Clear
8:15 AM 59.0 °F - 41.7 °F 53% 29.81 in 10.0 mi ESE 16.1 mph - N/A   Clear
8:35 AM 61.0 °F - 43.0 °F 52% 29.81 in 10.0 mi ESE 16.1 mph - N/A   Clear
8:55 AM 60.8 °F - 43.3 °F 53% 29.81 in 10.0 mi ESE 10.4 mph - N/A   Clear
9:15 AM 61.7 °F - 44.1 °F 52% 29.83 in 10.0 mi East 8.1 mph 11.5 mph N/A   Clear
9:35 AM 62.1 °F - 44.8 °F 53% 29.83 in 10.0 mi East 8.1 mph - N/A   Clear
9:55 AM 62.2 °F - 45.3 °F 54% 29.81 in 10.0 mi East 11.5 mph - N/A   Clear
10:15 AM 63.7 °F - 46.0 °F 53% 29.83 in 10.0 mi ESE 10.4 mph - N/A   Clear
10:35 AM 65.8 °F - 47.5 °F 52% 29.82 in 10.0 mi SE 13.8 mph - N/A   Clear
10:55 AM 67.6 °F - 49.1 °F 51% 29.79 in 10.0 mi ESE 13.8 mph - N/A   Clear
11:15 AM 69.1 °F - 49.6 °F 50% 29.76 in 10.0 mi East 13.8 mph - N/A   Clear
11:35 AM 69.4 °F - 50.4 °F 51% 29.77 in 10.0 mi SE 16.1 mph - N/A   Clear
11:55 AM 70.0 °F - 51.1 °F 51% 29.80 in 10.0 mi SSE 18.4 mph 26.5 mph N/A   Clear
12:15 PM 70.0 °F - 52.2 °F 53% 29.79 in 10.0 mi SSE 17.3 mph - N/A   Clear
12:35 PM 71.2 °F - 52.7 °F 52% 29.78 in 10.0 mi SE 13.8 mph - N/A   Clear
12:55 PM 71.6 °F - 53.1 °F 52% 29.76 in 10.0 mi ESE 18.4 mph - N/A   Clear
1:35 PM 77.5 °F - 55.8 °F 47% 29.80 in 10.0 mi SSE 10.4 mph - N/A   Clear
1:55 PM 79.7 °F - 57.2 °F 46% 29.80 in 10.0 mi South 11.5 mph 16.1 mph N/A Thunderstorm Scattered Clouds
2:15 PM 80.2 °F 80.6 °F 57.6 °F 46% 29.80 in 10.0 mi SSE 10.4 mph - N/A Thunderstorm Mostly Cloudy
2:35 PM 81.3 °F 81.4 °F 57.9 °F 45% 29.79 in 10.0 mi SSE 6.9 mph - N/A Thunderstorm Mostly Cloudy
2:55 PM 82.6 °F 82.3 °F 57.7 °F 43% 29.78 in 10.0 mi SSE 10.4 mph - N/A Thunderstorm Mostly Cloudy
3:15 PM 83.8 °F 83.1 °F 57.0 °F 40% 29.78 in 10.0 mi South 18.4 mph - N/A Thunderstorm Thunderstorm
3:55 PM 73.8 °F - 65.1 °F 74% 29.77 in 10.0 mi SW 3.5 mph - 0.02 in Thunderstorm Scattered Clouds
4:15 PM 74.3 °F - 64.4 °F 71% 29.74 in 10.0 mi SE 11.5 mph - N/A   Scattered Clouds
4:35 PM 76.1 °F - 64.2 °F 67% 29.74 in 10.0 mi ESE 12.7 mph - N/A   Clear
4:55 PM 78.8 °F - 63.3 °F 59% 29.74 in 10.0 mi ESE 11.5 mph - 0.01 in   Clear
5:15 PM 80.8 °F 81.9 °F 62.1 °F 53% 29.75 in 10.0 mi SE 16.1 mph - N/A   Clear
5:35 PM 81.1 °F 82.1 °F 61.9 °F 52% 29.74 in 10.0 mi SSE 16.1 mph - N/A   Clear
5:55 PM 81.3 °F 82.3 °F 61.9 °F 52% 29.74 in 10.0 mi SE 13.8 mph - N/A   Clear
6:15 PM 82.4 °F 83.0 °F 61.7 °F 49% 29.74 in 10.0 mi SE 9.2 mph - N/A   Clear
6:35 PM 82.0 °F 82.8 °F 61.9 °F 50% 29.76 in 10.0 mi ESE 10.4 mph - N/A   Clear
6:55 PM 70.5 °F - 54.0 °F 56% 29.76 in 10.0 mi NE 12.7 mph 16.1 mph N/A   Clear
7:15 PM 64.9 °F - 49.8 °F 58% 29.76 in 10.0 mi ENE 13.8 mph - N/A   Clear
7:35 PM 62.8 °F - 49.1 °F 61% 29.76 in 10.0 mi ENE 12.7 mph - N/A   Clear
7:55 PM 61.2 °F - 50.0 °F 67% 29.77 in 10.0 mi ENE 10.4 mph - N/A   Clear
8:15 PM 61.0 °F - 49.5 °F 66% 29.77 in 10.0 mi East 10.4 mph - N/A   Clear
8:35 PM 60.1 °F - 49.5 °F 68% 29.77 in 10.0 mi East 11.5 mph - N/A   Clear
8:55 PM 59.0 °F - 49.6 °F 71% 29.78 in 10.0 mi East 5.8 mph - N/A   Clear
9:15 PM 58.1 °F - 49.6 °F 73% 29.78 in 10.0 mi East 6.9 mph - N/A   Clear
9:35 PM 57.2 °F - 49.3 °F 75% 29.78 in 10.0 mi ESE 8.1 mph - N/A   Clear
9:55 PM 58.1 °F - 50.4 °F 75% 29.78 in 10.0 mi SE 6.9 mph - N/A   Clear
10:15 PM 61.3 °F - 54.3 °F 78% 29.78 in 10.0 mi South 12.7 mph - N/A   Clear
10:35 PM 68.9 °F - 58.1 °F 68% 29.78 in 10.0 mi South 13.8 mph - N/A   Clear
10:55 PM 68.2 °F - 58.1 °F 70% 29.78 in 10.0 mi South 12.7 mph - N/A   Clear
11:15 PM 68.4 °F - 58.5 °F 71% 29.77 in 10.0 mi South 13.8 mph - N/A   Clear
11:35 PM 68.9 °F - 58.8 °F 70% 29.78 in 10.0 mi South 15.0 mph - N/A   Clear
11:55 PM 68.9 °F - 58.6 °F 70% 29.77 in 10.0 mi South 12.7 mph - N/A   Clear